Regional Weather Roundup
Issued by NWS Huntsville, AL

Home | Current Version | Previous Version | Text Only | Print | Product List | Glossary On
Versions: 1 2 3 4 5 6 7 8 9 10 11 12 13 14 15 16 17 18 19 20 21 22 23 24 25 26 27 28 29 30 31 32 33 34 35 36 37 38 39 40 41 42 43 44 45 46 47 48 49
000
ASUS44 KHUN 201810
RWRHUN

WEATHER ROUNDUP FOR THE TENNESSEE VALLEY
NATIONAL WEATHER SERVICE HUNTSVILLE AL
100 PM CDT SAT SEP 20 2014

ALZ001>004-201900-
NORTHWEST ALABAMA

CITY           SKY/WX    TMP DP  RH WIND       PRES   REMARKS
COURTLAND HCN    N/A     81  32  16 SE5         N/A
SHOALS AIRPORT SUNNY     84  62  47 CALM      30.10F
6HR MIN TEMP:  67; 6HR MAX TEMP:  84;

$$

ALZ005>007-016-201900-
NORTH CENTRAL ALABAMA

CITY           SKY/WX    TMP DP  RH WIND       PRES   REMARKS
CULLMAN AG STN   N/A     82 N/A N/A E5          N/A
DECATUR AP     SUNNY     84  61  45 SE7       30.10F
6HR MIN TEMP:  67; 6HR MAX TEMP:  86;

HUNTSVILLE AP  MOSUNNY   84  63  49 SE6       30.10F
6HR MIN TEMP:  69; 6HR MAX TEMP:  85;

HUN NWS/UAH      N/A     84  60  43 SE5         N/A
MERIDIANVILLE  SUNNY     82  52  34 SE7       30.11F
VINEMONT AP    FAIR      82  61  49 SE5       30.13F
$$

ALZ008>010-201900-
NORTHEAST ALABAMA

CITY           SKY/WX    TMP DP  RH WIND       PRES   REMARKS
ALBERTVILLE    MOSUNNY   81  70  69 SE6       30.11F
FORT PAYNE     MOSUNNY   79  57  47 S6        30.11F
SCOTTSBORO AP  SUNNY     82  63  51 SE7       30.11F
SCOTTSBORO HCN   N/A     81 N/A N/A MISG        N/A
VALLEY HEAD      N/A     77 N/A N/A MISG        N/A
$$

TNZ076-096-097-201900-
SOUTHEASTERN MIDDLE TENNESSEE

CITY           SKY/WX    TMP DP  RH WIND       PRES   REMARKS
FAYETTEVILLE   SUNNY     81  61  50 S12       30.11F
TULLAHOMA      SUNNY     81  61  50 SW7       30.13F
WINCHESTER     SUNNY     82  63  51 S8        30.12F
$$

...SURROUNDING SITES...

CITY           SKY/WX    TMP DP  RH WIND       PRES   REMARKS
ATLANTA        MOSUNNY   81  62  52 E12G17    30.12F
ANNISTON       PTSUNNY   80  65  59 NE10      30.10F
BIRMINGHAM     MOSUNNY   83  64  52 VRB5      30.11F
CHATTANOOGA    MOSUNNY   81  61  50 SE6       30.12F
CORINTH        FAIR      84  66  54 CALM      30.08F
DALTON         SUNNY     81  61  50 CALM      30.12F
GADSDEN        PTSUNNY   82  63  51 SE12G17   30.10F
GOLDEN TRNGL   PTSUNNY   84  66  54 S9        30.07F
HALEYVILLE     FAIR      83  65  54 SE5       30.13F
JACKSON TN     SUNNY     83  68  60 VRB6      30.08F
LEWISBURG      FAIR      85  64  49 VRB5      30.10F
MEMPHIS        MOSUNNY   88  68  51 S6        30.06F HX  91
MURFREESBORO   FAIR      84  61  45 CALM      30.09F
NASHVILLE      MOSUNNY   85  63  47 S9        30.09F
OXFORD MS      FAIR      82  68  61 SE5       30.09F
ROME           MOSUNNY   82  62  50 S6        30.10F
SAVANNAH       SUNNY     82  68  61 VRB6      30.09F
TUPELO         SUNNY     84  66  54 S6        30.07F
TUSCALOOSA     MOSUNNY   86  62  44 E8        30.05F
$$

...GULF COAST WEATHER...

CITY           SKY/WX    TMP DP  RH WIND       PRES   REMARKS
GULFPORT       MOSUNNY   86  67  52 E13       29.99F
PASCAGOULA     MOSUNNY   86  67  52 E9        29.99F
MOBILE         MOSUNNY   83  68  60 E15       30.02F
GULF SHORES    MOCLDY    82  69  64 NE9G18    30.00F
PENSACOLA      PTSUNNY   83  68  60 NE13      30.00F
DESTIN         PTSUNNY   80  69  69 NE10      30.01F
PANAMA CITY    MOSUNNY   82  73  76 VRB7      29.98F
APPALACHICOLA  PTSUNNY   84  70  62 N12       29.96F
$$




USA.gov is the U.S. government's official web portal to all federal, state and local government web resources and services.